Погода в Консельейру-Лафаети

Бразилия     20°39′35″S   43°47′08″W
темп.,
°C
ветер,
м/с
пор.,
м/с
влажн.,
%
обл.,
%
осадки,
мм/ч
давл.,
гПа
погр.,
м
26 февраля, пт
пт2600:00+18юв129697 0.1 101351
03:00+16вюв119772 0.1 101223
06:00+16вюв129885 0.1 101251
09:00+20в239193 0.1 1014409
12:00+24в2376100 0.6 1013920
15:00+23в348496 4.9 1011599
18:00+19в2697100 7.9 1012234
21:00+17ююв2399100 20.9 1015147
27 февраля, сб
сб2700:00+17юв1198100 1.8 101554
03:00+17вюв1299100 2.8 1014105
06:00+17вюв2699100 0.4 1015286
09:00+20вюв3491100 0.4 1016470
12:00+22вюв347497 0.0 1016763
15:00+22вюв467899 0.0 1013763
18:00+19в4888100 0.0 1013371
21:00+17вюв2296100 0.0 101557
28 февраля, вс
вс2800:00+17вюв129998 0.0 101665
03:00+17вюв2410099 0.0 1014156
06:00+17вюв239898 0.0 1016211
09:00+20в368599 0.0 1016667
12:00+23в457195 0.0 10151142
15:00+24в567296 0.0 10121008
18:00+20вюв4887100 0.1 1012294
21:00+17вюв379889 0.1 1015205
1 марта, пн
пн100:00+16юв119991 0.0 101537
03:00+16юв129975 0.0 101479
06:00+16вюв1210072 0.0 101547
09:00+20в248783 0.0 1016526
12:00+24вюв347398 0.1 10151040
15:00+24вюв567399 0.5 1012966
18:00+20вюв488883 0.1 1012342
21:00+17в229491 0.1 101541
2 марта, вт
вт200:00+16вюв129752 0.0 101539
03:00+15вюв119836 0.0 101523
06:00+14вюв119987 0.0 101623
09:00+20в128485 0.0 1017488
12:00+25вюв136129 0.0 10161278
15:00+25юв446715 0.0 10131057
18:00+20вюв37900 0.3 1013254
21:00+18вюв23970 0.4 101662